Location: Hopville
(44.8032°N, 123.1329°W)
Time: 04:52:12
(UTC+00:00)

Meteor 1-11 - Pass Details

Date: 24 January 2021
Orbit: 840 x 887 km, 81.2° (Epoch: 26 February)

Event Time Altitude Azimuth Distance (km) Brightness Sun altitude
Rises 14:33:36 0° 345° (NNW) 3,409 7.1 -11.8°
Reaches altitude 10° 14:36:04 10° 340° (NNW) 2,468 6.3 -11.4°
Maximum altitude 14:41:29 53° 266° (W) 1,027 4.3 -10.4°
Drops below altitude 10° 14:46:52 10° 190° (S) 2,455 6.7 -9.5°
Sets 14:49:19 0° 186° (S) 3,389 7.5 -9.1°
